Time,TemperatureF,DewpointF,PressureIn,WindDirection,WindDirectionDegrees,WindSpeedMPH,WindSpeedGustMPH,Humidity,HourlyPrecipIn,Conditions,Clouds,dailyrainin,SoftwareType,DateUTC
2013-02-13 00:02:00,32.0,23.0,-100.00,West,260,2.0,8.0,68,0.00,,,0.00,,2013-02-13 00:02:00,
2013-02-13 00:11:00,32.0,23.0,-100.00,SSW,210,3.0,7.0,70,0.00,,,0.00,,2013-02-13 00:11:00,
2013-02-13 00:21:00,31.0,23.0,-100.00,SW,215,2.0,7.0,71,0.00,,,0.00,,2013-02-13 00:21:00,
2013-02-13 00:32:00,31.0,23.0,-100.00,SW,235,1.0,4.0,72,0.00,,,0.00,,2013-02-13 00:32:00,
2013-02-13 00:51:00,30.0,23.0,-100.00,West,270,2.0,4.0,74,0.00,,,0.00,,2013-02-13 00:51:00,
2013-02-13 01:01:00,30.0,23.0,-100.00,SW,225,3.0,7.0,76,0.00,,,0.00,,2013-02-13 01:01:00,
2013-02-13 01:11:00,30.0,23.0,-100.00,West,265,2.0,7.0,76,0.00,,,0.00,,2013-02-13 01:11:00,
2013-02-13 01:21:00,30.0,23.0,-100.00,West,265,2.0,7.0,76,0.00,,,0.00,,2013-02-13 01:21:00,
2013-02-13 01:31:00,29.0,23.0,-100.00,SW,215,2.0,6.0,78,0.00,,,0.00,,2013-02-13 01:31:00,
2013-02-13 01:42:00,28.0,23.0,-100.00,South,190,2.0,6.0,78,0.00,,,0.00,,2013-02-13 01:42:00,
2013-02-13 01:51:00,28.0,23.0,-100.00,SSW,210,2.0,6.0,79,0.00,,,0.00,,2013-02-13 01:51:00,
2013-02-13 02:01:00,28.0,23.0,-100.00,SW,215,3.0,6.0,80,0.00,,,0.00,,2013-02-13 02:01:00,
2013-02-13 02:11:00,28.0,23.0,-100.00,SSW,205,3.0,9.0,80,0.00,,,0.00,,2013-02-13 02:11:00,
2013-02-13 02:21:00,28.0,23.0,-100.00,SSW,210,2.0,6.0,81,0.00,,,0.00,,2013-02-13 02:21:00,
2013-02-13 02:31:00,28.0,23.0,-100.00,SW,230,2.0,6.0,81,0.00,,,0.00,,2013-02-13 02:31:00,
2013-02-13 02:41:00,28.0,23.0,-100.00,SW,235,4.0,8.0,81,0.00,,,0.00,,2013-02-13 02:41:00,
2013-02-13 02:52:00,28.0,23.0,-100.00,WSW,240,4.0,7.0,82,0.00,,,0.00,,2013-02-13 02:52:00,
2013-02-13 03:01:00,28.0,23.0,-100.00,WSW,240,3.0,7.0,82,0.00,,,0.00,,2013-02-13 03:01:00,
2013-02-13 03:11:00,28.0,23.0,-100.00,West,265,2.0,7.0,82,0.00,,,0.00,,2013-02-13 03:11:00,
2013-02-13 03:21:00,28.0,23.0,-100.00,West,265,2.0,7.0,82,0.00,,,0.00,,2013-02-13 03:21:00,
2013-02-13 03:32:00,27.0,23.0,-100.00,WNW,285,3.0,9.0,83,0.00,,,0.00,,2013-02-13 03:32:00,
2013-02-13 03:41:00,27.0,23.0,-100.00,WSW,255,2.0,9.0,83,0.00,,,0.00,,2013-02-13 03:41:00,
2013-02-13 03:51:00,27.0,23.0,-100.00,West,280,4.0,8.0,83,0.00,,,0.00,,2013-02-13 03:51:00,
2013-02-13 04:01:00,27.0,23.0,-100.00,WNW,285,4.0,7.0,83,0.00,,,0.00,,2013-02-13 04:01:00,
2013-02-13 04:11:00,27.0,23.0,-100.00,WNW,290,4.0,9.0,83,0.00,,,0.00,,2013-02-13 04:11:00,
2013-02-13 04:21:00,26.0,21.0,-100.00,WNW,295,4.0,8.0,83,0.00,,,0.00,,2013-02-13 04:21:00,
2013-02-13 04:31:00,26.0,21.0,-100.00,WSW,250,3.0,7.0,83,0.00,,,0.00,,2013-02-13 04:31:00,
2013-02-13 04:41:00,26.0,21.0,-100.00,West,275,4.0,7.0,84,0.00,,,0.00,,2013-02-13 04:41:00,
2013-02-13 04:51:00,26.0,21.0,-100.00,West,275,2.0,7.0,83,0.00,,,0.00,,2013-02-13 04:51:00,
2013-02-13 05:01:00,26.0,21.0,-100.00,WNW,300,1.0,4.0,84,0.00,,,0.00,,2013-02-13 05:01:00,
2013-02-13 05:11:00,26.0,21.0,-100.00,West,260,1.0,4.0,84,0.00,,,0.00,,2013-02-13 05:11:00,
2013-02-13 05:22:00,26.0,21.0,-100.00,West,260,1.0,4.0,84,0.00,,,0.00,,2013-02-13 05:22:00,
2013-02-13 05:31:00,26.0,21.0,-100.00,West,260,1.0,4.0,84,0.00,,,0.00,,2013-02-13 05:31:00,
2013-02-13 05:41:00,26.0,21.0,-100.00,West,260,1.0,4.0,84,0.00,,,0.00,,2013-02-13 05:41:00,
2013-02-13 06:22:00,23.0,19.0,-100.00,SSE,150,0.0,3.0,87,0.00,,,0.00,,2013-02-13 06:22:00,
2013-02-13 06:32:00,23.0,19.0,-100.00,East,100,1.0,2.0,87,0.00,,,0.00,,2013-02-13 06:32:00,
2013-02-13 06:42:00,22.0,19.0,-100.00,West,270,0.0,3.0,88,0.00,,,0.00,,2013-02-13 06:42:00,
2013-02-13 06:52:00,22.0,19.0,-100.00,WSW,245,1.0,2.0,88,0.00,,,0.00,,2013-02-13 06:52:00,
2013-02-13 07:02:00,23.0,19.0,-100.00,SW,230,1.0,2.0,88,0.00,,,0.00,,2013-02-13 07:02:00,
2013-02-13 07:11:00,23.0,21.0,-100.00,WSW,250,1.0,3.0,89,0.00,,,0.00,,2013-02-13 07:11:00,
2013-02-13 07:21:00,23.0,21.0,-100.00,South,170,1.0,2.0,90,0.00,,,0.00,,2013-02-13 07:21:00,
2013-02-13 07:31:00,23.0,21.0,-100.00,West,275,1.0,4.0,90,0.00,,,0.00,,2013-02-13 07:31:00,
2013-02-13 07:41:00,24.0,21.0,-100.00,West,265,1.0,4.0,90,0.00,,,0.00,,2013-02-13 07:41:00,
2013-02-13 07:51:00,24.0,21.0,-100.00,SW,235,1.0,4.0,90,0.00,,,0.00,,2013-02-13 07:51:00,
2013-02-13 08:01:00,23.0,21.0,-100.00,WSW,255,1.0,4.0,90,0.00,,,0.00,,2013-02-13 08:01:00,
2013-02-13 08:11:00,22.0,19.0,-100.00,West,260,0.0,2.0,91,0.00,,,0.00,,2013-02-13 08:11:00,
2013-02-13 08:21:00,22.0,19.0,-100.00,West,280,1.0,2.0,91,0.00,,,0.00,,2013-02-13 08:21:00,
2013-02-13 08:32:00,22.0,19.0,-100.00,South,170,0.0,1.0,91,0.00,,,0.00,,2013-02-13 08:32:00,
2013-02-13 08:43:00,22.0,19.0,-100.00,SW,215,1.0,2.0,91,0.00,,,0.00,,2013-02-13 08:43:00,
2013-02-13 08:52:00,22.0,19.0,-100.00,NE,35,0.0,2.0,91,0.00,,,0.00,,2013-02-13 08:52:00,
2013-02-13 09:01:00,22.0,21.0,-100.00,SW,225,1.0,2.0,92,0.00,,,0.00,,2013-02-13 09:01:00,
2013-02-13 09:11:00,23.0,21.0,-100.00,West,270,1.0,2.0,92,0.00,,,0.00,,2013-02-13 09:11:00,
2013-02-13 09:21:00,23.0,21.0,-100.00,SW,215,1.0,4.0,92,0.00,,,0.00,,2013-02-13 09:21:00,
2013-02-13 09:31:00,23.0,21.0,-100.00,SW,235,1.0,3.0,93,0.00,,,0.00,,2013-02-13 09:31:00,
2013-02-13 09:41:00,24.0,21.0,-100.00,South,180,1.0,4.0,93,0.00,,,0.00,,2013-02-13 09:41:00,
2013-02-13 09:51:00,24.0,21.0,-100.00,SW,215,2.0,4.0,93,0.00,,,0.00,,2013-02-13 09:51:00,
2013-02-13 10:01:00,24.0,21.0,-100.00,SSW,195,2.0,4.0,93,0.00,,,0.00,,2013-02-13 10:01:00,
2013-02-13 10:11:00,24.0,21.0,-100.00,SSW,205,2.0,5.0,93,0.00,,,0.00,,2013-02-13 10:11:00,
2013-02-13 10:21:00,23.0,21.0,-100.00,SSW,195,1.0,4.0,93,0.00,,,0.00,,2013-02-13 10:21:00,
2013-02-13 10:32:00,23.0,21.0,-100.00,SSE,160,1.0,3.0,93,0.00,,,0.00,,2013-02-13 10:32:00,
2013-02-13 10:41:00,22.0,21.0,-100.00,South,180,1.0,1.0,93,0.00,,,0.00,,2013-02-13 10:41:00,
2013-02-13 10:51:00,22.0,19.0,-100.00,South,180,1.0,2.0,93,0.00,,,0.00,,2013-02-13 10:51:00,
2013-02-13 11:01:00,22.0,19.0,-100.00,SW,220,1.0,3.0,93,0.00,,,0.00,,2013-02-13 11:01:00,
2013-02-13 11:11:00,22.0,19.0,-100.00,South,185,1.0,2.0,93,0.00,,,0.00,,2013-02-13 11:11:00,
2013-02-13 11:22:00,21.0,19.0,-100.00,WSW,255,1.0,4.0,94,0.00,,,0.00,,2013-02-13 11:22:00,
2013-02-13 11:32:00,21.0,19.0,-100.00,SSE,160,1.0,3.0,94,0.00,,,0.00,,2013-02-13 11:32:00,
2013-02-13 11:42:00,21.0,19.0,-100.00,SW,225,1.0,2.0,94,0.00,,,0.00,,2013-02-13 11:42:00,
2013-02-13 11:52:00,21.0,19.0,-100.00,SW,220,3.0,7.0,95,0.00,,,0.00,,2013-02-13 11:52:00,
2013-02-13 12:02:00,21.0,19.0,-100.00,SSW,205,2.0,4.0,95,0.00,,,0.00,,2013-02-13 12:02:00,
2013-02-13 12:11:00,22.0,19.0,-100.00,SW,225,2.0,4.0,95,0.00,,,0.00,,2013-02-13 12:11:00,
2013-02-13 12:21:00,22.0,21.0,-100.00,SSE,155,1.0,4.0,95,0.00,,,0.00,,2013-02-13 12:21:00,
2013-02-13 12:32:00,22.0,21.0,-100.00,South,180,1.0,4.0,95,0.00,,,0.00,,2013-02-13 12:32:00,
2013-02-13 12:42:00,22.0,21.0,-100.00,SSW,205,3.0,4.0,95,0.00,,,0.00,,2013-02-13 12:42:00,
2013-02-13 12:52:00,22.0,21.0,-100.00,South,180,2.0,5.0,95,0.00,,,0.00,,2013-02-13 12:52:00,
2013-02-13 13:02:00,22.0,21.0,-100.00,SW,215,3.0,6.0,95,0.00,,,0.00,,2013-02-13 13:02:00,
2013-02-13 13:11:00,22.0,21.0,-100.00,North,5,1.0,5.0,95,0.00,,,0.00,,2013-02-13 13:11:00,
2013-02-13 13:21:00,22.0,21.0,-100.00,North,5,1.0,5.0,95,0.00,,,0.00,,2013-02-13 13:21:00,
2013-02-13 13:32:00,22.0,21.0,-100.00,South,190,2.0,4.0,95,0.00,,,0.00,,2013-02-13 13:32:00,
2013-02-13 13:41:00,22.0,21.0,-100.00,SSW,200,3.0,6.0,95,0.00,,,0.00,,2013-02-13 13:41:00,
2013-02-13 13:51:00,22.0,21.0,-100.00,SSW,195,1.0,6.0,95,0.00,,,0.00,,2013-02-13 13:51:00,
2013-02-13 14:01:00,22.0,21.0,-100.00,SSW,195,2.0,5.0,95,0.00,,,0.00,,2013-02-13 14:01:00,
2013-02-13 14:11:00,22.0,21.0,-100.00,South,185,2.0,4.0,95,0.00,,,0.00,,2013-02-13 14:11:00,
2013-02-13 14:21:00,22.0,21.0,-100.00,SE,145,1.0,4.0,95,0.00,,,0.00,,2013-02-13 14:21:00,
2013-02-13 14:31:00,23.0,21.0,-100.00,South,175,2.0,4.0,95,0.00,,,0.00,,2013-02-13 14:31:00,
2013-02-13 14:41:00,23.0,21.0,-100.00,South,175,2.0,5.0,95,0.00,,,0.00,,2013-02-13 14:41:00,
2013-02-13 14:52:00,23.0,21.0,-100.00,SSW,200,3.0,5.0,95,0.00,,,0.00,,2013-02-13 14:52:00,
2013-02-13 15:01:00,24.0,23.0,-100.00,SSE,165,2.0,6.0,94,0.00,,,0.00,,2013-02-13 15:01:00,
2013-02-13 15:11:00,24.0,23.0,-100.00,SW,230,2.0,5.0,94,0.00,,,0.00,,2013-02-13 15:11:00,
2013-02-13 15:21:00,24.0,23.0,-100.00,South,180,2.0,4.0,93,0.00,,,0.00,,2013-02-13 15:21:00,
2013-02-13 15:32:00,24.0,23.0,-100.00,South,175,1.0,4.0,92,0.00,,,0.00,,2013-02-13 15:32:00,
2013-02-13 15:42:00,25.0,23.0,-100.00,South,180,2.0,6.0,91,0.00,,,0.00,,2013-02-13 15:42:00,
2013-02-13 15:51:00,26.0,23.0,-100.00,South,175,4.0,6.0,90,0.00,,,0.00,,2013-02-13 15:51:00,
2013-02-13 16:01:00,27.0,23.0,-100.00,South,185,3.0,7.0,88,0.00,,,0.00,,2013-02-13 16:01:00,
2013-02-13 16:11:00,27.0,23.0,-100.00,SSE,160,4.0,6.0,86,0.00,,,0.00,,2013-02-13 16:11:00,
2013-02-13 16:21:00,27.0,23.0,-100.00,SSE,160,4.0,6.0,86,0.00,,,0.00,,2013-02-13 16:21:00,
2013-02-13 16:31:00,29.0,25.0,-100.00,South,185,3.0,5.0,83,0.00,,,0.00,,2013-02-13 16:31:00,
2013-02-13 16:42:00,29.0,25.0,-100.00,SSW,200,2.0,6.0,82,0.00,,,0.00,,2013-02-13 16:42:00,
2013-02-13 16:51:00,31.0,25.0,-100.00,South,190,1.0,6.0,81,0.00,,,0.00,,2013-02-13 16:51:00,
2013-02-13 17:01:00,30.0,25.0,-100.00,South,180,2.0,6.0,79,0.00,,,0.00,,2013-02-13 17:01:00,
2013-02-13 17:11:00,31.0,25.0,-100.00,East,90,1.0,6.0,79,0.00,,,0.00,,2013-02-13 17:11:00,
2013-02-13 17:21:00,31.0,25.0,-100.00,SW,220,4.0,9.0,78,0.00,,,0.00,,2013-02-13 17:21:00,
2013-02-13 17:31:00,32.0,27.0,-100.00,East,80,1.0,9.0,77,0.00,,,0.00,,2013-02-13 17:31:00,
2013-02-13 17:41:00,33.0,27.0,-100.00,South,180,2.0,4.0,76,0.00,,,0.00,,2013-02-13 17:41:00,
2013-02-13 17:52:00,34.0,27.0,-100.00,SW,235,2.0,6.0,74,0.00,,,0.00,,2013-02-13 17:52:00,
2013-02-13 18:01:00,35.0,27.0,-100.00,WSW,245,3.0,6.0,73,0.00,,,0.00,,2013-02-13 18:01:00,
2013-02-13 18:11:00,36.0,28.0,-100.00,West,265,4.0,8.0,71,0.00,,,0.00,,2013-02-13 18:11:00,
2013-02-13 18:22:00,37.0,27.0,-100.00,SSW,210,3.0,7.0,67,0.00,,,0.00,,2013-02-13 18:22:00,
2013-02-13 18:32:00,37.0,27.0,-100.00,South,185,2.0,6.0,66,0.00,,,0.00,,2013-02-13 18:32:00,
2013-02-13 18:41:00,39.0,27.0,-100.00,SSW,205,4.0,7.0,62,0.00,,,0.00,,2013-02-13 18:41:00,
2013-02-13 18:52:00,40.0,27.0,-100.00,SW,230,4.0,8.0,59,0.00,,,0.00,,2013-02-13 18:52:00,
2013-02-13 19:01:00,40.0,27.0,-100.00,SSW,200,4.0,7.0,57,0.00,,,0.00,,2013-02-13 19:01:00,
2013-02-13 19:11:00,40.0,27.0,-100.00,South,190,3.0,7.0,57,0.00,,,0.00,,2013-02-13 19:11:00,
2013-02-13 19:21:00,39.0,27.0,-100.00,SSW,210,2.0,7.0,59,0.00,,,0.00,,2013-02-13 19:21:00,
2013-02-13 19:31:00,38.0,27.0,-100.00,South,180,6.0,8.0,61,0.00,,,0.00,,2013-02-13 19:31:00,
2013-02-13 19:41:00,39.0,27.0,-100.00,South,180,3.0,10.0,60,0.00,,,0.00,,2013-02-13 19:41:00,
2013-02-13 19:51:00,38.0,27.0,-100.00,South,185,6.0,9.0,60,0.00,,,0.00,,2013-02-13 19:51:00,
2013-02-13 20:02:00,38.0,27.0,-100.00,South,190,4.0,9.0,62,0.00,,,0.00,,2013-02-13 20:02:00,
2013-02-13 20:11:00,39.0,28.0,-100.00,SSW,205,4.0,11.0,63,0.00,,,0.00,,2013-02-13 20:11:00,
2013-02-13 20:21:00,40.0,28.0,-100.00,SSW,205,4.0,9.0,61,0.00,,,0.00,,2013-02-13 20:21:00,
2013-02-13 20:31:00,41.0,28.0,-100.00,SSW,195,4.0,7.0,59,0.00,,,0.00,,2013-02-13 20:31:00,
2013-02-13 20:41:00,41.0,28.0,-100.00,South,185,4.0,9.0,59,0.00,,,0.00,,2013-02-13 20:41:00,
2013-02-13 20:52:00,41.0,28.0,-100.00,SSW,200,5.0,13.0,59,0.00,,,0.00,,2013-02-13 20:52:00,
2013-02-13 21:01:00,41.0,27.0,-100.00,South,185,4.0,9.0,59,0.00,,,0.00,,2013-02-13 21:01:00,
2013-02-13 21:11:00,41.0,28.0,-100.00,SSW,205,3.0,8.0,59,0.00,,,0.00,,2013-02-13 21:11:00,
2013-02-13 21:21:00,41.0,28.0,-100.00,SW,215,2.0,9.0,59,0.00,,,0.00,,2013-02-13 21:21:00,
2013-02-13 21:31:00,41.0,28.0,-100.00,SW,235,3.0,11.0,59,0.00,,,0.00,,2013-02-13 21:31:00,
2013-02-13 21:42:00,41.0,28.0,-100.00,SSW,200,4.0,10.0,58,0.00,,,0.00,,2013-02-13 21:42:00,
2013-02-13 21:52:00,41.0,28.0,-100.00,SW,225,3.0,6.0,59,0.00,,,0.00,,2013-02-13 21:52:00,
2013-02-13 22:02:00,40.0,28.0,-100.00,SW,230,4.0,11.0,60,0.00,,,0.00,,2013-02-13 22:02:00,
2013-02-13 22:11:00,40.0,28.0,-100.00,South,185,5.0,9.0,61,0.00,,,0.00,,2013-02-13 22:11:00,
2013-02-13 22:21:00,39.0,28.0,-100.00,SSW,205,4.0,11.0,63,0.00,,,0.00,,2013-02-13 22:21:00,
2013-02-13 22:31:00,39.0,28.0,-100.00,SSW,200,6.0,13.0,64,0.00,,,0.00,,2013-02-13 22:31:00,
2013-02-13 22:42:00,39.0,28.0,-100.00,SW,225,2.0,8.0,66,0.00,,,0.00,,2013-02-13 22:42:00,
2013-02-13 22:51:00,39.0,28.0,-100.00,SW,225,6.0,9.0,67,0.00,,,0.00,,2013-02-13 22:51:00,
2013-02-13 23:01:00,39.0,30.0,-100.00,South,180,1.0,7.0,69,0.00,,,0.00,,2013-02-13 23:01:00,
2013-02-13 23:11:00,39.0,30.0,-100.00,SW,235,1.0,4.0,70,0.00,,,0.00,,2013-02-13 23:11:00,
2013-02-13 23:21:00,38.0,30.0,-100.00,SSW,195,3.0,7.0,72,0.00,,,0.00,,2013-02-13 23:21:00,
2013-02-13 23:32:00,38.0,30.0,-100.00,WSW,255,3.0,6.0,75,0.00,,,0.00,,2013-02-13 23:32:00,
2013-02-13 23:42:00,38.0,30.0,-100.00,SSW,195,1.0,6.0,76,0.00,,,0.00,,2013-02-13 23:42:00,
2013-02-13 23:52:00,37.0,30.0,-100.00,SSW,210,2.0,4.0,78,0.00,,,0.00,,2013-02-13 23:52:00,